Weather History for Lawrenceville, IL

Change the Weather History Date:

Friday, September 21, 2012

  Actual Average Record
Temperature  
Mean Temperature 64 °F 67 °F  
Max Temperature 80 °F 80 °F 98 °F (2010)
Min Temperature 47 °F 55 °F 38 °F (1991)
Degree Days  
Heating Degree Days 1 2  
Month to date heating degree days 23 10  
Since 1 July heating degree days 23 11  
Cooling Degree Days 0 4  
Month to date cooling degree days 120 141  
Year to date cooling degree days 1681 1324  
Growing Degree Days 14 (Base 50)    
Moisture  
Dew Point 54 °F    
Average Humidity 66    
Maximum Humidity 93    
Minimum Humidity 38    
Precipitation  
Precipitation 0.08 in 0.09 in 0.87 in (1967)
Month to date precipitation 5.69 2.19  
Year to date precipitation 21.13 31.54  
Sea Level Pressure  
Sea Level Pressure 29.88 in    
Wind  
Wind Speed 9 mph (SSW)    
Max Wind Speed 24 mph    
Max Gust Speed 31 mph    
Visibility 8 miles    
Events Rain    
T = Trace of Precipitation, MM = Missing Value Source: NWS Daily Summary

Daily Weather History Graph

Daily Weather History Graph

Search for Another Location

Airport:

Trip Planner

Search our weather history database for the weather conditions in past years. The results will help you decide how hot, cold, wet, or windy it might be!

Date:

Astronomy

Sep. 21, 2012 Rise Set
Actual Time 6:37 AM CDT 6:48 PM CDT
Civil Twilight 6:11 AM CDT 7:14 PM CDT
Nautical Twilight 5:40 AM CDT 7:45 PM CDT
Astronomical Twilight 5:08 AM CDT 8:17 PM CDT
Moon 12:54 PM CDT (9/21) 10:52 PM CDT (9/21)
Length of Visible Light 13h 03m
Length of Day
12h 10m
Waxing Crescent, 37% of the Moon is Illuminated
Sep 21
Waxing Crescent
Sep 22
First Quarter
Sep 29
Full
Oct 8
Last Quarter
Oct 15
New

Hourly Weather History & Observations

Time (CDT) Temp. Heat Index Dew Point Humidity Pressure Visibility Wind Dir Wind Speed Gust Speed Precip Events Conditions
12:53 AM 52.0 °F - 48.9 °F 89% 29.99 in 9.0 mi Calm Calm - N/A   Clear
1:53 AM 51.1 °F - 48.9 °F 92% 30.01 in 9.0 mi Calm Calm - N/A   Clear
2:53 AM 50.0 °F - 46.9 °F 89% 30.01 in 8.0 mi SSW 3.5 mph - N/A   Clear
3:53 AM 51.1 °F - 46.9 °F 86% 30.01 in 10.0 mi Calm Calm - N/A   Clear
4:53 AM 48.0 °F - 44.1 °F 86% 29.99 in 8.0 mi Calm Calm - 0.01 in   Clear
5:53 AM 48.0 °F - 46.0 °F 93% 29.99 in 5.0 mi Calm Calm - N/A   Clear
6:53 AM 50.0 °F - 48.0 °F 93% 30.00 in 6.0 mi Calm Calm - N/A   Partly Cloudy
7:53 AM 53.1 °F - 50.0 °F 89% 30.01 in 5.0 mi Calm Calm - N/A   Clear
8:53 AM 55.0 °F - 51.1 °F 86% 30.00 in 6.0 mi SE 3.5 mph - N/A   Mostly Cloudy
9:53 AM 59.0 °F - 52.0 °F 78% 29.99 in 9.0 mi SE 3.5 mph - N/A   Clear
10:53 AM 66.9 °F - 48.0 °F 51% 29.98 in 10.0 mi South 8.1 mph - N/A   Mostly Cloudy
11:53 AM 72.0 °F - 44.1 °F 37% 29.94 in 10.0 mi South 12.7 mph 17.3 mph N/A   Mostly Cloudy
12:53 PM 73.9 °F - 50.0 °F 43% 29.89 in 10.0 mi South 10.4 mph - N/A   Overcast
1:53 PM 78.1 °F - 55.0 °F 45% 29.82 in 10.0 mi South 10.4 mph - N/A   Overcast
2:53 PM 80.1 °F 80.4 °F 57.0 °F 45% 29.78 in 10.0 mi SSW 17.3 mph 27.6 mph N/A   Scattered Clouds
3:53 PM 77.0 °F - 57.9 °F 52% 29.75 in 10.0 mi South 18.4 mph 25.3 mph N/A   Scattered Clouds
4:53 PM 77.0 °F - 57.9 °F 52% 29.73 in 9.0 mi SSW 17.3 mph 24.2 mph N/A   Overcast
5:53 PM 75.9 °F - 59.0 °F 56% 29.74 in 9.0 mi SSW 11.5 mph - N/A   Mostly Cloudy
6:53 PM 73.9 °F - 60.1 °F 62% 29.72 in 8.0 mi SSW 15.0 mph 24.2 mph N/A   Mostly Cloudy
7:53 PM 71.1 °F - 63.0 °F 75% 29.74 in 5.0 mi SSW 17.3 mph - 0.00 in Rain Light Rain
8:53 PM 68.0 °F - 64.0 °F 87% 29.74 in 5.0 mi SSW 10.4 mph - 0.03 in Rain Light Rain
9:53 PM 68.0 °F - 61.0 °F 78% 29.74 in 10.0 mi WSW 15.0 mph - 0.05 in   Mostly Cloudy
10:53 PM 68.0 °F - 63.0 °F 84% 29.77 in 7.0 mi WSW 13.8 mph - N/A   Clear
11:53 PM 66.0 °F - 62.1 °F 87% 29.79 in 7.0 mi West 8.1 mph - N/A   Clear